| time (UTC) | temp F | wind direction | speed MPH | gust MPH | rain 1hr in | rain 24hr in | rain mn in | humidity % | barometer mb |
| 20260903202016 | 92 | 225 | 5.0 | 11.0 | 0.00 | 0.00 | 0.00 | 42 | 1024.1 |
| 20260903201015 | 92 | 248 | 3.0 | 9.0 | 0.00 | 0.00 | 0.00 | 43 | 1024.7 |
| 20260903200016 | 91 | 180 | 4.0 | 8.0 | 0.00 | 0.00 | 0.00 | 43 | 1024.8 |
| 20260903195016 | 90 | 203 | 4.0 | 10.0 | 0.00 | 0.00 | 0.00 | 44 | 1024.8 |
| 20260903194036 | 90 | 248 | 2.0 | 5.0 | 0.00 | 0.00 | 0.00 | 45 | 1025.0 |
| 20260903193016 | 89 | 225 | 4.0 | 9.0 | 0.00 | 0.00 | 0.00 | 47 | 1025.0 |
| 20260903192016 | 88 | 270 | 6.0 | 10.0 | 0.00 | 0.00 | 0.00 | 47 | 1025.1 |
| 20260903191036 | 88 | 225 | 4.0 | 12.0 | 0.00 | 0.00 | 0.00 | 47 | 1025.3 |
| 20260903190056 | 88 | 225 | 6.0 | 11.0 | 0.00 | 0.00 | 0.00 | 47 | 1025.5 |
| 20260903185015 | 88 | 225 | 5.0 | 10.0 | 0.00 | 0.00 | 0.00 | 48 | 1025.6 |
| 20260903184036 | 88 | 180 | 3.0 | 9.0 | 0.00 | 0.00 | 0.00 | 47 | 1025.7 |
| 20260903183016 | 89 | 180 | 3.0 | 7.0 | 0.00 | 0.00 | 0.00 | 48 | 1025.9 |
| 20260903182016 | 88 | 293 | 3.0 | 7.0 | 0.00 | 0.00 | 0.00 | 48 | 1026.0 |
| 20260903181016 | 87 | 203 | 4.0 | 9.0 | 0.00 | 0.00 | 0.00 | 50 | 1026.3 |
| 20260903180036 | 87 | 293 | 3.0 | 6.0 | 0.00 | 0.00 | 0.00 | 50 | 1026.3 |
| 20260903175016 | 86 | 180 | 2.0 | 5.0 | 0.00 | 0.00 | 0.00 | 51 | 1026.5 |
| 20260903174015 | 86 | 270 | 2.0 | 6.0 | 0.00 | 0.00 | 0.00 | 52 | 1026.5 |
| 20260903173015 | 85 | 225 | 3.0 | 8.0 | 0.00 | 0.00 | 0.00 | 53 | 1026.4 |
| 20260903172015 | 85 | 270 | 1.0 | 3.0 | 0.00 | 0.00 | 0.00 | 52 | 1026.4 |
| 20260903171015 | 85 | 180 | 2.0 | 8.0 | 0.00 | 0.00 | 0.00 | 54 | 1026.4 |
| 20260903170056 | 84 | 248 | 3.0 | 6.0 | 0.00 | 0.00 | 0.00 | 54 | 1026.4 |
| 20260903165036 | 84 | 203 | 3.0 | 6.0 | 0.00 | 0.00 | 0.00 | 56 | 1026.5 |
| 20260903164015 | 83 | 225 | 2.0 | 5.0 | 0.00 | 0.00 | 0.00 | 57 | 1026.5 |
| 20260903163016 | 83 | 225 | 3.0 | 5.0 | 0.00 | 0.00 | 0.00 | 58 | 1026.3 |
| 20260903162036 | 82 | 270 | 1.0 | 2.0 | 0.00 | 0.00 | 0.00 | 59 | 1026.4 |
| 20260903161015 | 82 | 225 | 1.0 | 4.0 | 0.00 | 0.00 | 0.00 | 60 | 1026.5 |
| 20260903160035 | 81 | 225 | 1.0 | 4.0 | 0.00 | 0.00 | 0.00 | 61 | 1026.4 |
| 20260903155015 | 81 | 203 | 2.0 | 5.0 | 0.00 | 0.00 | 0.00 | 61 | 1026.4 |
| 20260903154036 | 81 | 203 | 2.0 | 4.0 | 0.00 | 0.00 | 0.00 | 62 | 1026.4 |
| 20260903153035 | 81 | 225 | 2.0 | 4.0 | 0.00 | 0.00 | 0.00 | 62 | 1026.4 |
| 20260903152015 | 80 | 203 | 2.0 | 4.0 | 0.00 | 0.00 | 0.00 | 63 | 1026.4 |
| 20260903151056 | 80 | 180 | 1.0 | 4.0 | 0.00 | 0.00 | 0.00 | 64 | 1026.4 |
| 20260903150037 | 80 | 158 | 2.0 | 4.0 | 0.00 | 0.00 | 0.00 | 65 | 1026.4 |
| 20260903145037 | 79 | 158 | 2.0 | 4.0 | 0.00 | 0.00 | 0.00 | 66 | 1026.2 |
| 20260903144017 | 79 | 158 | 3.0 | 5.0 | 0.00 | 0.00 | 0.00 | 66 | 1026.4 |
| 20260903143018 | 78 | 113 | 4.0 | 7.0 | 0.00 | 0.00 | 0.00 | 68 | 1026.4 |
| 20260903142017 | 78 | 135 | 4.0 | 5.0 | 0.00 | 0.00 | 0.00 | 68 | 1026.5 |
| 20260903141017 | 78 | 135 | 4.0 | 7.0 | 0.00 | 0.00 | 0.00 | 68 | 1026.4 |
| 20260903140017 | 77 | 158 | 4.0 | 6.0 | 0.00 | 0.00 | 0.00 | 69 | 1026.3 |
| 20260903135017 | 77 | 158 | 2.0 | 4.0 | 0.00 | 0.00 | 0.00 | 70 | 1026.3 |
| 20260903134017 | 77 | 0.0 | 0.0 | 0.00 | 0.00 | 0.00 | 71 | 1026.4 | |
| 20260903133017 | 77 | 0.0 | 0.0 | 0.00 | 0.00 | 0.00 | 71 | 1026.2 | |
| 20260903132017 | 77 | 0.0 | 1.0 | 0.00 | 0.00 | 0.00 | 71 | 1026.2 | |
| 20260903131018 | 77 | 90 | 1.0 | 2.0 | 0.00 | 0.00 | 0.00 | 70 | 1026.2 |
| 20260903130037 | 77 | 158 | 2.0 | 4.0 | 0.00 | 0.00 | 0.00 | 70 | 1026.2 |
| 20260903125017 | 77 | 203 | 2.0 | 4.0 | 0.00 | 0.00 | 0.00 | 70 | 1026.1 |
| 20260903124017 | 77 | 270 | 1.0 | 4.0 | 0.00 | 0.00 | 0.00 | 70 | 1025.9 |
| 20260903123017 | 77 | 0.0 | 2.0 | 0.00 | 0.00 | 0.00 | 71 | 1025.7 | |
| 20260903122017 | 77 | 0.0 | 2.0 | 0.00 | 0.00 | 0.00 | 70 | 1025.6 | |
| 20260903121037 | 76 | 0.0 | 1.0 | 0.00 | 0.00 | 0.00 | 71 | 1025.5 | |
| 20260903120017 | 77 | 0.0 | 1.0 | 0.00 | 0.00 | 0.00 | 72 | 1025.5 | |
| 20260903115037 | 77 | 0.0 | 2.0 | 0.00 | 0.00 | 0.00 | 72 | 1025.4 | |
| 20260903114017 | 76 | 0.0 | 0.0 | 0.00 | 0.00 | 0.00 | 72 | 1025.5 | |
| 20260903113037 | 76 | 0.0 | 0.0 | 0.00 | 0.00 | 0.00 | 72 | 1025.4 | |
| 20260903112017 | 76 | 0.0 | 0.0 | 0.00 | 0.00 | 0.00 | 72 | 1025.4 | |
| 20260903111017 | 76 | 0.0 | 2.0 | 0.00 | 0.00 | 0.00 | 71 | 1025.5 | |
| 20260903110037 | 76 | 0.0 | 0.0 | 0.00 | 0.00 | 0.00 | 72 | 1025.5 | |
| 20260903105017 | 76 | 0 | 1.0 | 2.0 | 0.00 | 0.00 | 0.00 | 71 | 1025.6 |
| 20260903104037 | 77 | 45 | 1.0 | 2.0 | 0.00 | 0.00 | 0.00 | 71 | 1025.5 |
| 20260903103017 | 77 | 45 | 2.0 | 3.0 | 0.00 | 0.00 | 0.00 | 70 | 1025.6 |
| 20260903102017 | 77 | 45 | 1.0 | 4.0 | 0.00 | 0.00 | 0.00 | 71 | 1025.6 |
| 20260903101037 | 77 | 23 | 1.0 | 2.0 | 0.00 | 0.00 | 0.00 | 71 | 1025.8 |
| 20260903100037 | 77 | 0.0 | 0.0 | 0.00 | 0.00 | 0.00 | 71 | 1025.9 | |
| 20260903095037 | 77 | 0.0 | 0.0 | 0.00 | 0.00 | 0.00 | 71 | 1025.9 | |
| 20260903094017 | 77 | 0.0 | 0.0 | 0.00 | 0.00 | 0.00 | 71 | 1026.0 | |
| 20260903093017 | 77 | 0.0 | 0.0 | 0.00 | 0.00 | 0.00 | 70 | 1025.9 | |
| 20260903092017 | 77 | 0.0 | 0.0 | 0.00 | 0.00 | 0.00 | 70 | 1026.1 | |
| 20260903091017 | 77 | 0.0 | 0.0 | 0.00 | 0.00 | 0.00 | 70 | 1026.1 | |
| 20260903090017 | 77 | 0.0 | 0.0 | 0.00 | 0.00 | 0.00 | 70 | 1026.0 | |
| 20260903085017 | 77 | 0.0 | 0.0 | 0.00 | 0.00 | 0.00 | 70 | 1025.9 | |
| 20260903084017 | 78 | 0.0 | 0.0 | 0.00 | 0.00 | 0.00 | 69 | 1025.9 | |
| 20260903083017 | 78 | 0.0 | 0.0 | 0.00 | 0.00 | 0.00 | 69 | 1026.1 | |
| 20260903082017 | 78 | 0.0 | 0.0 | 0.00 | 0.00 | 0.00 | 68 | 1026.2 | |
| 20260903081037 | 78 | 0.0 | 0.0 | 0.00 | 0.00 | 0.00 | 66 | 1026.1 | |
| 20260903080017 | 79 | 0.0 | 0.0 | 0.00 | 0.00 | 0.00 | 64 | 1026.3 | |
| 20260903075017 | 80 | 0.0 | 0.0 | 0.00 | 0.00 | 0.00 | 63 | 1026.3 | |
| 20260903074017 | 80 | 0.0 | 1.0 | 0.00 | 0.00 | 0.00 | 62 | 1026.3 | |
| 20260903073037 | 81 | 0.0 | 2.0 | 0.00 | 0.00 | 0.00 | 61 | 1026.5 | |
| 20260903072017 | 81 | 203 | 1.0 | 3.0 | 0.00 | 0.00 | 0.00 | 60 | 1026.5 |
| 20260903071017 | 81 | 180 | 2.0 | 3.0 | 0.00 | 0.00 | 0.00 | 60 | 1026.4 |
| 20260903070017 | 81 | 0.0 | 2.0 | 0.00 | 0.00 | 0.00 | 60 | 1026.3 | |
| 20260903065017 | 81 | 135 | 2.0 | 3.0 | 0.00 | 0.00 | 0.00 | 59 | 1026.1 |
| 20260903064017 | 81 | 158 | 3.0 | 4.0 | 0.00 | 0.00 | 0.00 | 59 | 1026.2 |
| 20260903063037 | 81 | 135 | 3.0 | 4.0 | 0.00 | 0.00 | 0.00 | 59 | 1026.3 |
| 20260903062037 | 81 | 0.0 | 0.0 | 0.00 | 0.00 | 0.00 | 58 | 1026.3 | |
| 20260903061017 | 81 | 0.0 | 0.0 | 0.00 | 0.00 | 0.00 | 57 | 1026.3 | |
| 20260903060017 | 82 | 0.0 | 0.0 | 0.00 | 0.00 | 0.00 | 56 | 1026.3 | |
| 20260903055017 | 82 | 293 | 1.0 | 2.0 | 0.00 | 0.00 | 0.00 | 55 | 1026.4 |
| 20260903054017 | 82 | 0.0 | 3.0 | 0.00 | 0.00 | 0.00 | 55 | 1026.4 | |
| 20260903053017 | 82 | 0.0 | 1.0 | 0.00 | 0.00 | 0.00 | 56 | 1026.4 | |
| 20260903052017 | 82 | 248 | 1.0 | 3.0 | 0.00 | 0.00 | 0.00 | 55 | 1026.4 |
| 20260903051017 | 82 | 0.0 | 0.0 | 0.00 | 0.00 | 0.00 | 56 | 1026.1 | |
| 20260903050017 | 82 | 0.0 | 0.0 | 0.00 | 0.00 | 0.00 | 56 | 1026.2 | |
| 20260903045017 | 82 | 0.0 | 0.0 | 0.00 | 0.00 | 0.00 | 56 | 1026.2 | |
| 20260903044017 | 82 | 0.0 | 0.0 | 0.00 | 0.00 | 0.00 | 55 | 1026.1 | |
| 20260903043017 | 82 | 0.0 | 0.0 | 0.00 | 0.00 | 0.00 | 54 | 1026.1 | |
| 20260903042017 | 83 | 0.0 | 0.0 | 0.00 | 0.00 | 0.00 | 53 | 1026.0 | |
| 20260903041017 | 83 | 293 | 1.0 | 2.0 | 0.00 | 0.00 | 0.00 | 53 | 1025.8 |
| 20260903040017 | 83 | 293 | 2.0 | 3.0 | 0.00 | 0.00 | 0.00 | 53 | 1025.8 |
| 20260903035017 | 84 | 0.0 | 0.0 | 0.00 | 0.00 | 0.00 | 52 | 1025.9 | |
| 20260903034017 | 84 | 0.0 | 2.0 | 0.00 | 0.00 | 0.00 | 51 | 1025.7 | |
| 20260903033017 | 84 | 180 | 1.0 | 2.0 | 0.00 | 0.00 | 0.00 | 49 | 1025.5 |
| 20260903032017 | 84 | 135 | 3.0 | 5.0 | 0.00 | 0.00 | 0.00 | 49 | 1025.3 |
| 20260903031017 | 84 | 158 | 2.0 | 4.0 | 0.00 | 0.00 | 0.00 | 50 | 1024.7 |
| 20260903030017 | 84 | 135 | 3.0 | 5.0 | 0.00 | 0.00 | 0.00 | 49 | 1024.5 |
| 20260903025017 | 84 | 158 | 3.0 | 5.0 | 0.00 | 0.00 | 0.00 | 51 | 1024.5 |
| 20260903024017 | 84 | 158 | 3.0 | 4.0 | 0.00 | 0.00 | 0.00 | 51 | 1024.0 |
| 20260903023017 | 85 | 180 | 1.0 | 3.0 | 0.00 | 0.00 | 0.00 | 51 | 1024.1 |
| 20260903022017 | 85 | 0.0 | 1.0 | 0.00 | 0.00 | 0.00 | 50 | 1023.9 | |
| 20260903021017 | 86 | 0.0 | 1.0 | 0.00 | 0.00 | 0.00 | 49 | 1024.1 | |
| 20260903020017 | 87 | 248 | 1.0 | 3.0 | 0.00 | 0.00 | 0.00 | 47 | 1024.1 |
| 20260903015017 | 87 | 293 | 1.0 | 2.0 | 0.00 | 0.00 | 0.00 | 47 | 1024.0 |
| 20260903014017 | 87 | 248 | 3.0 | 5.0 | 0.00 | 0.00 | 0.00 | 47 | 1024.0 |
| 20260903013017 | 88 | 248 | 4.0 | 6.0 | 0.00 | 0.00 | 0.00 | 46 | 1024.0 |
| 20260903012017 | 89 | 248 | 5.0 | 9.0 | 0.00 | 0.00 | 0.00 | 44 | 1023.9 |
| 20260903011017 | 90 | 248 | 6.0 | 9.0 | 0.00 | 0.00 | 0.00 | 43 | 1023.9 |
| 20260903010017 | 91 | 248 | 4.0 | 7.0 | 0.00 | 0.00 | 0.00 | 43 | 1023.7 |
| 20260903005017 | 91 | 203 | 4.0 | 7.0 | 0.00 | 0.00 | 0.00 | 42 | 1023.7 |
| 20260903004016 | 91 | 225 | 4.0 | 7.0 | 0.00 | 0.00 | 0.00 | 41 | 1023.7 |
| 20260903003017 | 91 | 225 | 4.0 | 9.0 | 0.00 | 0.00 | 0.00 | 42 | 1023.8 |
| 20260903002017 | 91 | 225 | 5.0 | 9.0 | 0.00 | 0.00 | 0.00 | 42 | 1023.9 |
| 20260903001017 | 92 | 225 | 6.0 | 9.0 | 0.00 | 0.00 | 0.00 | 41 | 1024.0 |
| 20260903000017 | 93 | 225 | 5.0 | 10.0 | 0.00 | 0.00 | 0.00 | 40 | 1024.1 |
| 20260902235016 | 93 | 180 | 5.0 | 10.0 | 0.00 | 0.00 | 0.00 | 39 | 1024.1 |
| 20260902234017 | 94 | 203 | 7.0 | 15.0 | 0.00 | 0.00 | 0.00 | 39 | 1024.4 |
| 20260902233017 | 94 | 248 | 4.0 | 6.0 | 0.00 | 0.00 | 0.00 | 39 | 1024.3 |
| 20260902232017 | 94 | 203 | 5.0 | 12.0 | 0.00 | 0.00 | 0.00 | 41 | 1024.6 |
| 20260902231016 | 93 | 180 | 8.0 | 17.0 | 0.00 | 0.00 | 0.00 | 41 | 1024.6 |
| 20260902230016 | 94 | 158 | 6.0 | 13.0 | 0.00 | 0.00 | 0.00 | 41 | 1024.7 |
| 20260902225016 | 93 | 180 | 6.0 | 10.0 | 0.00 | 0.00 | 0.00 | 40 | 1024.7 |
| 20260902224016 | 92 | 180 | 6.0 | 10.0 | 0.00 | 0.00 | 0.00 | 42 | 1024.8 |
| 20260902223017 | 91 | 203 | 8.0 | 11.0 | 0.00 | 0.00 | 0.00 | 43 | 1024.6 |
| 20260902222016 | 90 | 225 | 6.0 | 9.0 | 0.00 | 0.00 | 0.00 | 39 | 1024.6 |
| 20260902221017 | 91 | 225 | 7.0 | 12.0 | 0.00 | 0.00 | 0.00 | 39 | 1024.8 |
| 20260902220016 | 91 | 225 | 4.0 | 7.0 | 0.00 | 0.00 | 0.00 | 38 | 1024.9 |
| 20260902215016 | 91 | 225 | 7.0 | 12.0 | 0.00 | 0.00 | 0.00 | 38 | 1025.0 |
| 20260902214016 | 92 | 248 | 7.0 | 11.0 | 0.00 | 0.00 | 0.00 | 36 | 1025.0 |
| 20260902213016 | 92 | 225 | 6.0 | 12.0 | 0.00 | 0.00 | 0.00 | 38 | 1025.1 |
| 20260902212016 | 93 | 248 | 7.0 | 14.0 | 0.00 | 0.00 | 0.00 | 38 | 1025.1 |
| 20260902211016 | 93 | 225 | 6.0 | 9.0 | 0.00 | 0.00 | 0.00 | 37 | 1025.4 |
| 20260902210017 | 93 | 225 | 4.0 | 8.0 | 0.00 | 0.00 | 0.00 | 37 | 1025.4 |
| 20260902205016 | 94 | 225 | 6.0 | 12.0 | 0.00 | 0.00 | 0.00 | 36 | 1025.3 |
| 20260902204016 | 94 | 248 | 7.0 | 11.0 | 0.00 | 0.00 | 0.00 | 37 | 1025.7 |
| 20260902203016 | 95 | 248 | 5.0 | 9.0 | 0.00 | 0.00 | 0.00 | 37 | 1025.7 |